Location: Katowice
(50.2611°N, 19.0242°E)
Time: 10:33:41
(UTC+02:00)

ISS - Pass Details

Date: 28 March 2019
Orbit: 408 x 410 km, 51.6° (Epoch: 25 April)

Event Time Altitude Azimuth Distance (km) Brightness Sun altitude
Rises 20:55:38 0° 282° (WNW) 2,337 1.0 -25.0°
Reaches altitude 10° 20:57:44 10° 284° (WNW) 1,475 -0.2 -25.2°
Enters shadow 20:59:22 27° 287° (WNW) 832 -1.7 -25.4°
